Showing default

YAOGAN 26, 40362

Orbit data source: Space-Track

YAOGAN 26, 40362 is a payload satellite owned by PLA GAD (CN) in SSO that was launched on Sat, 27 Dec 2014 UTC via a CHANG ZHENG 4B launch vehicle from the Taiyaun Space Center, China (TSC). Payload-class satellites include a variety of spacecraft equipped with specific instruments for various scientific and technological missions. These include communications satellites like Starlink; space stations such as the ISS; scientific satellites like the Hubble; Earth observation satellites from companies like Planet Labs, Umbra, and HawkEye 360; GPS; miniature CubeSats for education and research; and military/defense satellites.

Loading next visibility...
Identifier
40362, 2014-088A
Orbit
SSO
Country
Flag of CNCN / PRC
Related business
Manufacturer
CAST
Mission
Operational Defense Imaging
Bus & Motor
JB-13?, Unknown motor
Mass
~3,000 kg wet, ~3,000 kg dry
Launch date (UTC)
2014-12-27 (11 years ago)
Launch vehicle
CHANG ZHENG 4B
Launch site
Taiyaun Space Center, China (TSC)
Object type
Payload
Rocket body
Debris
Shape & HBR
Box + 2 Pan, 4.0 m
Radar Cross Section
9.231 m², Large (>1 m²)

Expand to show TLE details & history
Last TLE update: 1 day ago

TLE from 1 day ago
0 YAOGAN 26
1 40362U 14088A   26172.53086809  .00017149  00000-0  33512-3 0  9992
2 40362  97.0643 172.6381 0005541  57.7340 302.4447 15.47500088638374
Epoch: 2026-06-21T12:44Z
TLE epoch observation values (Epoch: 2026-06-21T12:44:27.002Z)
Latitude
-0.00008°
Longitude
71.79579°
Altitude
425.158 km
Speed
7.657 km/s
True Right ascension
11h 30m 33s
True Declination
0° 00' 00"
Sunlit
Object was in daylight at epoch
Visualization orbit readout
Latitude
Unknown
Longitude
Unknown
Altitude
Unknown
Speed
Unknown
Apparent Right ascension
Unknown
Apparent Declination
Unknown
Sunlit
N/A
Visualization observer readout
Local Sidereal Time
00:51:19
Azimuth
Unknown
Elevation
Unknown
Doppler factor
Unknown
Orbital elements
Apogee altitude
424.724 km
Perigee altitude
417.189 km
Semi-major axis
6,799.094 km
Eccentricity
0.00055
Inclination
97.0643°
RAAN
172.6381°
Arg. of periapsis
57.734°
True anomaly
302.3911°
Mean anomaly
302.4447°
Eccentric anomaly
302.4179°
Mean motion
3.87139 °/min
Orbital period
92.99 mins
BSTAR
0.00033512
Loading maneuver chart data...
Computing Atmospheric mass density...
Loading historical data...
Loading historical data...
Loading historical data...
Loading historical data...
Loading historical data...
Loading historical data...
Loading historical data...

Documentation

Showing up to 5 results
|